Location: Newark
(51.3318°N, 0.0053°E)
Time: 03:26:10
(UTC+00:00)

CUBEBUG 2 - Pass Details

Date: 09 July 2022
Orbit: 584 x 692 km, 97.7° (Epoch: 14 August)

Event Time Altitude Azimuth Distance (km) Brightness Sun altitude
Rises 02:04:17 0° 25° (NNE) 2,863 ? -11.8°
Reaches altitude 10° 02:06:52 10° 41° (NE) 1,970 ? -11.6°
Maximum altitude 02:10:12 22° 92° (E) 1,375 ? -11.3°
Drops below altitude 10° 02:13:34 10° 143° (SE) 2,006 ? -11.1°
Enters shadow 02:15:58 - 158° (SSE) 2,837 ? -10.9°
